Find Jilin-1 GaoFen 06A 15 xing

NORAD ID: 57026 Int'l Des: NNA 2023-085 Owner: CGSTL Country: CN Constellation: jilin-1 operational
LEOCIRCULARRETROGRADESSO

Live Position

Loading 3D Globe...

About Jilin-1 GaoFen 06A 15 xing

Description loading...

Upcoming Passes

Passes for default location (London). Set your location on the main map for personalized predictions.

Altitude History

Loading altitude history...

Two-Line Element Set

1 57026U 23085Y 26104.83985685 .00008588 00000-0 26493-3 0 9999
2 57026 97.4885 217.2139 0004199 288.8328 71.2459 15.33824174157100
Epoch: Apr 14, 2026 • Age: 7 hours

Current Status

Altitude 480.7 km
Velocity 7.63 km/s
Sub-Earth Point 82.55°N, 116.63°W
Launch Date Jun 15, 2023
Age 2.8 years
Type earth observation

Technical Details

Classification Payload
Mass 42.00 kg
Dry Mass 42.00 kg
Total Mass 42.00 kg
Length 1.50 m
Diameter 1.00 m
Span 1.50 m
Shape Box
Manufacturer CGSTL
Bus Type JL-1
Phase Status In Orbit
Owner/State CGSTL/CN

Most Searched